CW8844 Weather Reports


time (UTC)temp
C
wind
direction
speed
KPH
gust
KPH
rain 1hr
cm
rain 24hr
cm
rain mn
cm
humidity
%
barometer
mb
20260502105623 2 85 8.0 17.7 0.00 0.00 0.00 55 1021.4
20260502104629 2 57 16.1 22.5 0.00 0.00 0.00 53 1021.4
20260502103618 3 99 8.0 12.9 0.00 0.00 0.00 52 1021.4
20260502102626 3 299 4.8 14.5 0.00 0.00 0.00 54 1021.4
20260502101620 3 100 14.5 17.7 0.00 0.00 0.00 53 1021.2
20260502100627 3 98 11.3 16.1 0.00 0.00 0.00 53 1021.2
20260502090622 4 95 14.5 19.3 0.00 0.00 0.00 49 1020.8
20260502070639 6 55 17.7 22.5 0.00 0.00 0.00 45 1020.7
20260502065624 7 65 17.7 22.5 0.00 0.00 0.00 43 1020.7
20260502064614 6 82 12.9 17.7 0.00 0.00 0.00 47 1020.6
20260502063624 6 103 4.8 20.9 0.00 0.00 0.00 47 1020.6
20260502062615 7 59 12.9 19.3 0.00 0.00 0.00 47 1020.5
20260502061629 7 73 14.5 25.7 0.00 0.00 0.00 45 1020.4
20260502060628 7 69 11.3 22.5 0.00 0.00 0.00 45 1020.3
20260502055630 7 63 17.7 22.5 0.00 0.00 0.00 44 1020.2
20260502054621 8 60 16.1 20.9 0.00 0.00 0.00 44 1020.2
20260502053615 8 81 9.7 16.1 0.00 0.00 0.00 43 1020.0
20260502052624 8 157 3.2 11.3 0.00 0.00 0.00 44 1019.9
20260502051615 8 116 6.4 14.5 0.00 0.00 0.00 44 1019.8
20260502050623 9 67 12.9 16.1 0.00 0.00 0.00 41 1019.8
20260502045647 9 55 4.8 11.3 0.00 0.00 0.00 41 1019.8
20260502044620 9 120 9.7 19.3 0.00 0.00 0.00 41 1019.8
20260502043631 10 88 11.3 22.5 0.00 0.00 0.00 41 1019.6
20260502042621 10 61 14.5 25.7 0.00 0.00 0.00 41 1019.5
20260502041614 10 88 14.5 19.3 0.00 0.00 0.00 41 1019.4
20260502040621 10 80 6.4 16.1 0.00 0.00 0.00 42 1019.4
20260502035621 10 50 12.9 17.7 0.00 0.00 0.00 42 1019.3
20260502034631 10 65 9.7 16.1 0.00 0.00 0.00 43 1019.2
20260502033624 10 61 6.4 11.3 0.00 0.00 0.00 44 1019.1
20260502032615 11 67 4.8 12.9 0.00 0.00 0.00 43 1018.8
20260502031625 11 78 4.8 9.7 0.00 0.00 0.00 43 1018.7
20260502030630 11 59 0.0 6.4 0.00 0.00 0.00 42 1018.5
20260502025616 11 57 0.0 8.0 0.00 0.00 0.00 42 1018.3
20260502024624 12 61 4.8 8.0 0.00 0.00 0.00 39 1018.2
20260502023633 13 333 0.0 4.8 0.00 0.00 0.00 37 1018.0
20260502022620 14 290 0.0 4.8 0.00 0.00 0.00 32 1017.9
20260502021614 15 257 4.8 8.0 0.00 0.00 0.00 33 1017.7
20260502020623 16 240 6.4 11.3 0.00 0.00 0.00 30 1017.6
20260502015625 17 306 1.6 4.8 0.00 0.00 0.00 30 1017.4
20260502014620 17 304 4.8 12.9 0.00 0.00 0.00 23 1017.3
20260502013627 18 321 3.2 9.7 0.00 0.00 0.00 23 1017.2
20260502012616 18 347 1.6 16.1 0.00 0.00 0.00 24 1017.1
20260502011624 18 349 9.7 16.1 0.00 0.00 0.00 24 1017.1
20260502010613 18 336 6.4 12.9 0.00 0.00 0.00 23 1017.0
20260502005616 18 316 8.0 16.1 0.00 0.00 0.00 24 1017.0
20260502004627 18 331 8.0 17.7 0.00 0.00 0.00 25 1017.1
20260502003653 18 277 8.0 16.1 0.00 0.00 0.00 28 1017.0
20260502002641 18 270 14.5 20.9 0.00 0.00 0.00 27 1017.1
20260502001615 18 269 11.3 17.7 0.00 0.00 0.00 24 1017.2
20260502000643 18 274 8.0 16.1 0.00 0.00 0.00 26 1017.2
20260501235644 18 306 11.3 20.9 0.00 0.00 0.00 26 1017.3
20260501234631 18 256 12.9 22.5 0.00 0.00 0.00 26 1017.3
20260501233624 18 296 12.9 19.3 0.00 0.00 0.00 26 1017.3
20260501232632 18 285 14.5 22.5 0.00 0.00 0.00 27 1017.3
20260501231621 18 292 11.3 19.3 0.00 0.00 0.00 27 1017.3
20260501230628 18 317 12.9 20.9 0.00 0.00 0.00 29 1017.3
20260501225632 18 268 16.1 25.7 0.00 0.00 0.00 26 1017.3
20260501224620 18 285 12.9 19.3 0.00 0.00 0.00 24 1017.4
20260501223630 18 290 11.3 22.5 0.00 0.00 0.00 22 1017.4
20260501222620 18 267 16.1 25.7 0.00 0.00 0.00 23 1017.5
20260501221632 18 280 9.7 22.5 0.00 0.00 0.00 21 1017.6
20260501220620 18 301 14.5 20.9 0.00 0.00 0.00 23 1017.8
20260501215620 18 265 11.3 24.1 0.00 0.00 0.00 21 1017.8
20260501214630 18 263 8.0 19.3 0.00 0.00 0.00 23 1017.9
20260501213624 17 289 8.0 20.9 0.00 0.00 0.00 23 1018.0
20260501212633 17 275 3.2 14.5 0.00 0.00 0.00 20 1018.1
20260501211622 18 329 4.8 19.3 0.00 0.00 0.00 23 1018.3
20260501210615 18 233 6.4 11.3 0.00 0.00 0.00 21 1018.5
20260501205615 17 65 3.2 16.1 0.00 0.00 0.00 18 1018.5
20260501204646 17 56 1.6 20.9 0.00 0.00 0.00 18 1018.4
20260501203616 17 96 6.4 16.1 0.00 0.00 0.00 16 1018.5
20260501202644 17 248 4.8 9.7 0.00 0.00 0.00 24 1018.6
20260501201616 16 198 6.4 12.9 0.00 0.00 0.00 19 1018.8
20260501200623 16 20 3.2 17.7 0.00 0.00 0.00 17 1018.8
20260501195626 16 86 6.4 17.7 0.00 0.00 0.00 19 1018.9
20260501194617 16 76 4.8 14.5 0.00 0.00 0.00 20 1019.0
20260501193632 16 340 4.8 14.5 0.00 0.00 0.00 23 1019.1
20260501192620 16 87 3.2 12.9 0.00 0.00 0.00 20 1019.2
20260501191627 15 30 3.2 9.7 0.00 0.00 0.00 22 1019.3
20260501190613 15 342 6.4 20.9 0.00 0.00 0.00 21 1019.5
20260501185618 15 164 6.4 17.7 0.00 0.00 0.00 21 1019.6
20260501184648 15 67 9.7 20.9 0.00 0.00 0.00 21 1019.7
20260501183616 15 343 3.2 25.7 0.00 0.00 0.00 24 1019.8
20260501182647 14 111 9.7 25.7 0.00 0.00 0.00 24 1019.8
20260501181619 14 75 11.3 20.9 0.00 0.00 0.00 24 1020.1
20260501180616 13 115 6.4 17.7 0.00 0.00 0.00 21 1020.2
20260501175617 13 65 4.8 24.1 0.00 0.00 0.00 24 1020.3
20260501174625 13 132 8.0 19.3 0.00 0.00 0.00 24 1020.3
20260501173615 13 59 12.9 24.1 0.00 0.00 0.00 23 1020.5
20260501172630 13 86 17.7 25.7 0.00 0.00 0.00 23 1020.4
20260501171621 13 49 6.4 20.9 0.00 0.00 0.00 25 1020.5
20260501170649 12 140 8.0 16.1 0.00 0.00 0.00 25 1020.7
20260501165631 12 72 11.3 19.3 0.00 0.00 0.00 27 1020.6
20260501164624 12 173 11.3 22.5 0.00 0.00 0.00 28 1020.7
20260501163633 11 290 8.0 14.5 0.00 0.00 0.00 39 1020.8
20260501162624 10 252 8.0 14.5 0.00 0.00 0.00 44 1020.9
20260501161652 10 274 8.0 11.3 0.00 0.00 0.00 47 1021.0
20260501160622 10 308 3.2 11.3 0.00 0.00 0.00 47 1021.0
20260501155621 9 265 4.8 11.3 0.00 0.00 0.00 46 1021.0
20260501154632 8 285 3.2 12.9 0.00 0.00 0.00 48 1021.0
20260501153623 8 309 6.4 12.9 0.00 0.00 0.00 50 1021.1
20260501152616 8 247 3.2 6.4 0.00 0.00 0.00 48 1021.0
20260501151627 8 242 3.2 9.7 0.00 0.00 0.00 48 1021.1
20260501150616 8 286 1.6 6.4 0.00 0.00 0.00 50 1021.1
20260501145621 8 279 1.6 6.4 0.00 0.00 0.00 50 1021.2
20260501144631 7 106 0.0 0.0 0.00 0.00 0.00 50 1021.0
20260501143620 7 106 0.0 4.8 0.00 0.00 0.00 52 1021.0
20260501142629 6 105 3.2 6.4 0.00 0.00 0.00 55 1021.0